This is the latest recevied weather packets stored in our database for station/object WD7OO. If no packets are shown the sender has not sent any weather packets the latest 10 day(s).
| Time | Temp. | Humidity | Pressure | Rain* | Wind** | Luminosity | Snow |
|---|---|---|---|---|---|---|---|
| 1777725937 | 3.89° C | 86% | 1020.2 hPa | 0 mm | - | 212 W/m² | - |
| 1777725634 | 3.89° C | 89% | 1020.1 hPa | 0 mm | - | 189 W/m² | - |
| 1777725332 | 3.89° C | 92% | 1020.1 hPa | 0 mm | - | 201 W/m² | - |
| 1777725029 | 3.33° C | 96% | 1020 hPa | 0 mm | - | 118 W/m² | - |
| 1777724725 | 2.78° C | 98% | 1020.1 hPa | 0 mm | - | 151 W/m² | - |
| 1777724423 | 1.67° C | 99% | 1020.1 hPa | 0 mm | - | 93 W/m² | - |
| 1777724120 | 1.11° C | 99% | 1020 hPa | 0 mm | - | 31 W/m² | - |
| 1777723817 | 1.11° C | 99% | 1019.9 hPa | 0 mm | - | 30 W/m² | - |
| 1777723514 | 0.56° C | 99% | 1020.1 hPa | 0 mm | - | 29 W/m² | - |
| 1777723211 | 0.56° C | 99% | 1020 hPa | 0 mm | - | 29 W/m² | - |
| 1777722909 | 0° C | 99% | 1019.8 hPa | 0 mm | - | 26 W/m² | - |
| 1777722604 | 0° C | 99% | 1020 hPa | 0 mm | - | 26 W/m² | - |
| 1777722301 | -0.56° C | 99% | 1019.9 hPa | 0 mm | - | 24 W/m² | - |
| 1777721998 | -0.56° C | 99% | 1019.8 hPa | 0 mm | - | 23 W/m² | - |
| 1777721695 | -1.11° C | 99% | 1019.7 hPa | 0 mm | - | 22 W/m² | - |
| 1777721394 | -1.11° C | 99% | 1019.4 hPa | 0 mm | - | 20 W/m² | - |
| 1777721091 | -1.11° C | 99% | 1019.7 hPa | 0 mm | - | 19 W/m² | - |
| 1777720789 | -1.11° C | 99% | 1019.8 hPa | 0 mm | - | 17 W/m² | - |
| 1777720486 | -1.67° C | 99% | 1019.4 hPa | 0 mm | - | 15 W/m² | - |
| 1777720183 | -1.67° C | 99% | 1019.7 hPa | 0 mm | - | 14 W/m² | - |
| 1777719881 | -1.67° C | 99% | 1019.6 hPa | 0 mm | - | 11 W/m² | - |
| 1777719578 | -1.67° C | 99% | 1019.2 hPa | 0 mm | - | 8 W/m² | - |
| 1777719275 | -1.67° C | 99% | 1019.1 hPa | 0 mm | - | 6 W/m² | - |
| 1777718973 | -1.67° C | 99% | 1019.1 hPa | 0 mm | - | 4 W/m² | - |
| 1777718670 | -1.67° C | 99% | 1019.3 hPa | 0 mm | - | 3 W/m² | - |
* Rain latest hour (hover to see other rain measurements)
** Current wind speed in m/s (hover to see current wind gust speed)